Regional Weather Roundup
Issued by NWS

Home | Current Version | Previous Version | Text Only | Print | Product List | Glossary Off
Versions: 1 2 3 4 5 6 7 8 9 10 11 12 13 14 15 16 17 18 19 20 21 22 23 24 25 26 27 28 29 30 31 32 33 34 35 36 37 38 39 40 41 42 43 44 45 46 47 48 49 50

000
ASUS43 KFSD 010302
RWRSD

WEATHER ROUNDUP FOR SOUTH DAKOTA
NATIONAL WEATHER SERVICE SIOUX FALLS SD
1000 PM CDT FRI SEP 30 2016

NOTE: "FAIR" INDICATES FEW OR NO CLOUDS BELOW 12,000 FEET WITH NO
SIGNIFICANT WEATHER AND/OR OBSTRUCTIONS TO VISIBILITY.


SDZ001>005-009-010-012>017-010400-
NORTHWEST AND NORTH CENTRAL SOUTH DAKOTA

CITY           SKY/WX    TMP DP  RH WIND       PRES   REMARKS
BUFFALO          N/A     62  46  55 E8        29.95S
FAITH            N/A     65  47  52 SE16      30.00R
MOBRIDGE       PTCLDY    65  42  43 SE14      30.04S
$$

SDZ012>016-024>037-041>051-057-063-072>074-010400-
SOUTHWEST AND SOUTH CENTRAL SOUTH DAKOTA

CITY           SKY/WX    TMP DP  RH WIND       PRES   REMARKS
RAPID CTY ARPT CLOUDY    62  50  64 S9        30.02R
PIERRE         PTCLDY    62  45  53 SE14      30.06S
CUSTER         CLOUDY    55  44  66 CALM      30.15R
ELLSWORTH AFB  MOCLDY    65  52  62 S9        30.01R
PHILIP         MOCLDY    63  48  58 E10       30.01S
PINE RIDGE     PTCLDY    66  47  50 S13       30.06R
WINNER         FAIR      61  47  59 SE12      30.10S
$$

SDZ004>011-016>023-039-040-010400-
NORTHEAST SOUTH DAKOTA

CITY           SKY/WX    TMP DP  RH WIND       PRES   REMARKS
ABERDEEN       PTCLDY    55  44  66 E9        30.14S
WATERTOWN      PTCLDY    59  45  59 SE7       30.18S
SISSETON         N/A     52  46  80 S5        30.18S
$$

SDZ017-020-022-023-036>040-048>070-010400-
SOUTHEAST SOUTH DAKOTA

CITY           SKY/WX    TMP DP  RH WIND       PRES   REMARKS
SIOUX FALLS    CLOUDY    53  46  77 NE5       30.17S
HURON          PTCLDY    57  45  64 SE7       30.14S
MITCHELL       CLOUDY    55  45  68 SE6       30.15R
YANKTON        MOCLDY    55  46  71 E6        30.14S
$$

ABBREVIATIONS USED IN REMARKS
   TC - TEMPERATURE IN CELSIUS
  WCI - WIND CHILL INDEX
   HX - HEAT INDEX
  VSB - VISIBILITY




USA.gov is the U.S. government's official web portal to all federal, state and local government web resources and services.